Location: *
(45.1333°S, 169.6333°W)
Time: 19:34:16
(UTC+00:00)

CZ-2C R/B - Pass Details

Date: 26 May 2022
Orbit: 785 x 869 km, 98.2° (Epoch: 06 July)

Event Time Altitude Azimuth Distance (km) Brightness Sun altitude
Rises 04:15:10 0° 1° (N) 3,448 6.2 -4.8°
Reaches altitude 10° 04:17:37 10° 356° (N) 2,514 5.6 -5.2°
Maximum altitude 04:23:05 53° 279° (W) 1,066 3.8 -6.1°
Drops below altitude 10° 04:28:32 10° 203° (SSW) 2,508 5.2 -7.0°
Sets 04:30:59 0° 197° (SSW) 3,439 5.8 -7.4°
